TimePST,TemperatureF,Dew PointF,Humidity,Sea Level PressureIn,VisibilityMPH,Wind Direction,Wind SpeedMPH,Gust SpeedMPH,PrecipitationIn,Events,Conditions,WindDirDegrees,DateUTC
12:56 AM,19.0,17.1,92,30.18,10.0,Calm,Calm,-,N/A,,Overcast,0,2012-12-30 08:56:00
1:56 AM,19.9,19.0,96,30.19,3.0,Calm,Calm,-,N/A,,Overcast,0,2012-12-30 09:56:00
2:09 AM,21.2,19.4,93,30.08,1.8,Calm,Calm,-,N/A,,Overcast,0,2012-12-30 10:09:00
2:30 AM,21.2,19.4,93,30.09,2.0,Calm,Calm,-,N/A,,Overcast,0,2012-12-30 10:30:00
2:56 AM,21.0,19.0,92,30.21,3.0,Calm,Calm,-,N/A,,Overcast,0,2012-12-30 10:56:00
3:37 AM,21.2,19.4,93,30.12,1.8,Calm,Calm,-,N/A,,Overcast,0,2012-12-30 11:37:00
3:45 AM,21.2,19.4,93,30.11,2.0,Calm,Calm,-,0.00,Snow,Light Snow,0,2012-12-30 11:45:00
3:56 AM,21.0,19.0,92,30.23,2.5,Calm,Calm,-,0.00,,Overcast,0,2012-12-30 11:56:00
4:16 AM,19.4,19.4,100,30.11,5.0,Calm,Calm,-,N/A,,Overcast,0,2012-12-30 12:16:00
4:56 AM,21.0,19.0,92,30.22,5.0,Calm,Calm,-,0.00,,Overcast,0,2012-12-30 12:56:00
5:03 AM,21.2,19.4,93,30.11,1.8,Calm,Calm,-,N/A,,Overcast,0,2012-12-30 13:03:00
5:13 AM,19.4,19.4,100,30.12,0.5,Calm,Calm,-,N/A,Fog,Light Freezing Fog,0,2012-12-30 13:13:00
5:56 AM,21.0,19.0,92,30.24,1.8,Calm,Calm,-,N/A,,Overcast,0,2012-12-30 13:56:00
6:12 AM,19.4,19.4,100,30.12,3.0,Calm,Calm,-,N/A,,Overcast,0,2012-12-30 14:12:00
6:56 AM,19.9,19.0,96,30.24,6.0,Calm,Calm,-,N/A,,Overcast,0,2012-12-30 14:56:00
7:31 AM,19.4,17.6,93,30.13,7.0,Calm,Calm,-,N/A,,Overcast,0,2012-12-30 15:31:00
7:56 AM,19.9,18.0,92,30.26,10.0,Calm,Calm,-,N/A,,Overcast,0,2012-12-30 15:56:00
8:56 AM,19.9,18.0,92,30.29,10.0,Calm,Calm,-,N/A,,Overcast,0,2012-12-30 16:56:00
9:56 AM,21.0,19.0,92,30.30,10.0,Calm,Calm,-,N/A,,Overcast,0,2012-12-30 17:56:00
10:56 AM,21.0,18.0,88,30.31,10.0,Calm,Calm,-,N/A,,Overcast,0,2012-12-30 18:56:00
11:42 AM,23.0,19.4,86,30.16,10.0,Calm,Calm,-,N/A,,Overcast,0,2012-12-30 19:42:00
11:56 AM,23.0,19.0,85,30.28,10.0,Calm,Calm,-,N/A,,Overcast,0,2012-12-30 19:56:00
12:56 PM,23.0,18.0,81,30.28,10.0,Calm,Calm,-,N/A,,Overcast,0,2012-12-30 20:56:00
1:56 PM,24.1,18.0,77,30.27,10.0,Calm,Calm,-,N/A,,Overcast,0,2012-12-30 21:56:00
2:56 PM,23.0,18.0,81,30.30,10.0,Calm,Calm,-,N/A,,Overcast,0,2012-12-30 22:56:00
3:56 PM,23.0,18.0,81,30.29,10.0,Calm,Calm,-,N/A,,Overcast,0,2012-12-30 23:56:00
4:56 PM,21.9,17.1,82,30.30,10.0,Calm,Calm,-,N/A,,Overcast,0,2012-12-31 00:56:00
5:34 PM,17.6,15.8,93,30.18,10.0,Calm,Calm,-,N/A,,Mostly Cloudy,0,2012-12-31 01:34:00
5:56 PM,17.1,15.1,92,30.31,10.0,Calm,Calm,-,N/A,,Overcast,0,2012-12-31 01:56:00
6:56 PM,16.0,14.0,92,30.34,10.0,Calm,Calm,-,N/A,,Overcast,0,2012-12-31 02:56:00
7:56 PM,16.0,14.0,92,30.32,10.0,Calm,Calm,-,N/A,,Overcast,0,2012-12-31 03:56:00
8:56 PM,12.0,10.0,92,30.33,10.0,Calm,Calm,-,N/A,,Mostly Cloudy,0,2012-12-31 04:56:00
9:39 PM,10.4,6.8,85,30.15,10.0,Calm,Calm,-,N/A,,Scattered Clouds,0,2012-12-31 05:39:00
9:56 PM,9.0,6.1,88,30.31,10.0,Calm,Calm,-,N/A,,Clear,0,2012-12-31 05:56:00
10:56 PM,5.0,1.9,87,30.35,10.0,Calm,Calm,-,N/A,,Clear,0,2012-12-31 06:56:00
11:56 PM,3.9,-0.0,84,30.35,10.0,Calm,Calm,-,N/A,,Clear,0,2012-12-31 07:56:00